Location: Go�ngahuizen
(53.0821°N, 5.8849°E)
Time: 05:32:06
(UTC+00:00)

Cosmos 1805 Rocket - Pass Details

Date: 09 April 2020
Orbit: 605 x 630 km, 82.5° (Epoch: 01 June)

Event Time Altitude Azimuth Distance (km) Brightness Sun altitude
Rises 22:34:41 0° 347° (NNW) 2,935 8.3 -27.4°
Reaches altitude 10° 22:36:56 10° 345° (NNW) 2,024 7.2 -27.5°
Enters shadow 22:40:32 54° 323° (NW) 772 4.2 -27.7°
